Tracking 18840 objects as of 19-November-2017
HD Live streaming from Space Station
objects crossing your sky now

COSMOS 2216

Track COSMOS 2216 now!
10-day predictions
COSMOS 2216 is classified as:


NORAD ID: 22187
Int'l Code: 1992-068F
Perigee: 1,415.5 km
Apogee: 1,424.0 km
Inclination: 82.6 °
Period: 114.1 minutes
Semi major axis: 7790 km
RCS: 1.0724 m2 (large)
Launch date: October 20, 1992
Source: Commonwealth of Independent States (former USSR) (CIS)
Launch site: PLESETSK MISSILE AND SPACE COMPLEX (PKMTR)
aabbcc
Your satellite tracking list
Your tracking list is empty




NASA's NSSDC Master Catalog

Two Line Element Set (TLE):
1 22187U 92068F   17322.69581318 +.00000043 +00000-0 +18170-3 0  9998
2 22187 082.5956 178.7381 0005447 045.0675 315.0858 12.62503403155602
Source of the keplerian elements: AFSPC